{"data":{"norad_id":59506,"intl_designator":"2024-071Y","name":"STARLINK-31524","alt_names":[],"object_type":"PAYLOAD","status":"ACTIVE","operator":null,"country":"US","launch_date":"2024-04-13","launch_site_code":"AFETR","launch_vehicle":null,"mission":null,"orbit_class":"UNKNOWN","rcs_meters":null,"size_class":null,"mass_kg":null,"dimensions":null,"purposes":["comms"],"wikipedia_slug":null,"has_3d_model":false,"image_url":null,"decayed_at":null,"tle_current":{"epoch":"2026-09-21T10:58:03.818496Z","epoch_age_seconds":82921,"freshness":"FRESH","line1":"1 59506U 24071Y   26264.45698864  .00000286  00000+0  19908-4 0  9995","line2":"2 59506  43.0031 307.2121 0001367 257.8885 102.1814 15.27577551138222","mean_motion":15.27577551,"eccentricity":0.0001367,"inclination_deg":43.0031,"raan_deg":307.2121,"arg_perigee_deg":257.8885,"mean_anomaly_deg":102.1814,"bstar":1.9908e-5,"rev_number":13822,"period_min":94.266899841342,"perigee_km":482.1185040947,"apogee_km":483.99435437825,"semimajor_km":6861.1934292365,"source":"CELESTRAK","updated_at":"2026-09-22T09:00:48.961884Z"}}}